Weather History for Bishop, CA

Change the Weather History Date:

Wednesday, October 2, 2013

  Actual Average Record
Temperature  
Mean Temperature 63 °F 62 °F  
Max Temperature 84 °F 82 °F 95 °F (1980)
Min Temperature 42 °F 42 °F 27 °F (1946)
Degree Days  
Heating Degree Days 2 4  
Month to date heating degree days 4 8  
Since 1 July heating degree days 60 51  
Cooling Degree Days 0 1  
Month to date cooling degree days 0 2  
Year to date cooling degree days 1337 1098  
Growing Degree Days 12 (Base 50)    
Moisture  
Dew Point 23 °F    
Average Humidity 29    
Maximum Humidity 53    
Minimum Humidity 5    
Precipitation  
Precipitation 0.00 in 0.01 in 0.16 in (1974)
Month to date precipitation 0.00 0.02  
Year to date precipitation 1.11 3.58  
Snow  
Snow 0.00 in 0.00 in - ()
Month to date snowfall 0.0 0.0  
Since 1 July snowfall 0.0 0.0  
Since 1 September snowfall 0.0 0.0  
Snow Depth 0.00 in    
Sea Level Pressure  
Sea Level Pressure 29.79 in    
Wind  
Wind Speed 5 mph (NNW)    
Max Wind Speed 20 mph    
Max Gust Speed 26 mph    
Visibility 10 miles    
Events      
T = Trace of Precipitation, MM = Missing Value Source: NWS Daily Summary

Daily Weather History Graph

Daily Weather History Graph

Search for Another Location

Airport:

Trip Planner

Search our weather history database for the weather conditions in past years. The results will help you decide how hot, cold, wet, or windy it might be!

Date:

Astronomy

Oct. 02, 2013 Rise Set
Actual Time 6:50 AM PDT 6:34 PM PDT
Civil Twilight 6:24 AM PDT 7:00 PM PDT
Nautical Twilight 5:53 AM PDT 7:30 PM PDT
Astronomical Twilight 5:23 AM PDT 8:01 PM PDT
Moon 4:30 AM PDT 5:11 PM PDT
Length of Visible Light 12h 36m
Length of Day
11h 44m
Waning Crescent, 6% of the Moon is Illuminated
Oct 2
Waning Crescent
Oct 4
New
Oct 11
First Quarter
Oct 18
Full
Oct 26
Last Quarter

Hourly Weather History & Observations

Time (PDT) Temp. Dew Point Humidity Pressure Visibility Wind Dir Wind Speed Gust Speed Precip Events Conditions
12:56 AM 52.0 °F 28.0 °F 40% 29.82 in 10.0 mi NNE 3.5 mph - N/A   Clear
1:56 AM 55.0 °F 28.0 °F 35% 29.81 in 10.0 mi NW 8.1 mph - N/A   Clear
2:56 AM 48.0 °F 28.0 °F 46% 29.81 in 10.0 mi WNW 3.5 mph - N/A   Clear
3:56 AM 51.1 °F 28.9 °F 43% 29.80 in 10.0 mi WNW 4.6 mph - N/A   Clear
4:56 AM 43.0 °F 27.0 °F 53% 29.82 in 10.0 mi Calm Calm - N/A   Clear
5:56 AM 45.0 °F 28.0 °F 52% 29.82 in 10.0 mi Calm Calm - N/A   Clear
6:56 AM 46.9 °F 28.9 °F 50% 29.84 in 10.0 mi WNW 8.1 mph - N/A   Clear
7:56 AM 48.9 °F 28.9 °F 46% 29.86 in 10.0 mi Calm Calm - N/A   Clear
8:56 AM 61.0 °F 28.9 °F 30% 29.84 in 10.0 mi Calm Calm - N/A   Clear
9:56 AM 69.1 °F 28.9 °F 22% 29.83 in 10.0 mi NNW 3.5 mph - N/A   Clear
10:56 AM 73.0 °F 28.0 °F 19% 29.82 in 10.0 mi ESE 4.6 mph - N/A   Clear
11:56 AM 75.0 °F 26.1 °F 16% 29.80 in 10.0 mi Calm Calm - N/A   Clear
12:56 PM 78.1 °F 27.0 °F 15% 29.77 in 10.0 mi South 4.6 mph - N/A   Clear
1:56 PM 79.0 °F 23.0 °F 13% 29.74 in 10.0 mi Calm Calm - N/A   Clear
2:56 PM 81.0 °F 21.9 °F 11% 29.72 in 10.0 mi Calm Calm - N/A   Clear
3:56 PM 84.0 °F 21.0 °F 10% 29.70 in 10.0 mi WNW 4.6 mph - N/A   Clear
4:56 PM 82.0 °F 16.0 °F 8% 29.71 in 10.0 mi Variable 3.5 mph - N/A   Clear
5:56 PM 78.1 °F 3.0 °F 5% 29.73 in 10.0 mi NW 16.1 mph 24.2 mph N/A   Clear
6:56 PM 70.0 °F 12.0 °F 11% 29.76 in 10.0 mi North 11.5 mph - N/A   Clear
7:56 PM 69.1 °F 17.1 °F 14% 29.79 in 10.0 mi North 13.8 mph - N/A   Clear
8:56 PM 60.1 °F 21.0 °F 22% 29.80 in 10.0 mi North 5.8 mph - N/A   Clear
9:56 PM 61.0 °F 17.1 °F 18% 29.80 in 10.0 mi Variable 3.5 mph - N/A   Clear
10:56 PM 62.1 °F 12.0 °F 14% 29.79 in 10.0 mi Variable 4.6 mph - N/A   Clear
11:56 PM 57.9 °F 19.9 °F 23% 29.80 in 10.0 mi Calm Calm - N/A   Clear